This is the latest recevied weather packets stored in our database for station/object N6GPM. If no packets are shown the sender has not sent any weather packets the latest 10 day(s).
| Time | Temp. | Humidity | Pressure | Rain* | Wind** | Luminosity | Snow |
|---|---|---|---|---|---|---|---|
| 1778005548 | 15° C | 67% | 1018.4 hPa | 0 mm | - | 375 W/m² | - |
| 1778005245 | 14.44° C | 69% | 1018.3 hPa | 0 mm | - | 974 W/m² | - |
| 1778004941 | 13.89° C | 71% | 1018.4 hPa | 0 mm | - | 416 W/m² | - |
| 1778004639 | 13.89° C | 71% | 1018.3 hPa | 0 mm | - | 308 W/m² | - |
| 1778004334 | 14.44° C | 71% | 1018.4 hPa | 0 mm | - | 245 W/m² | - |
| 1778004033 | 14.44° C | 71% | 1018.2 hPa | 0 mm | - | 259 W/m² | - |
| 1778003732 | 13.89° C | 71% | 1018.2 hPa | 0 mm | - | 271 W/m² | - |
| 1778003429 | 13.89° C | 70% | 1018.3 hPa | 0 mm | - | 280 W/m² | - |
| 1778003126 | 13.89° C | 69% | 1018.3 hPa | 0 mm | - | 265 W/m² | - |
| 1778002822 | 13.89° C | 69% | 1018.2 hPa | 0 mm | - | 283 W/m² | - |
| 1778002520 | 13.89° C | 70% | 1018.1 hPa | 0 mm | - | 315 W/m² | - |
| 1778002216 | 13.89° C | 69% | 1018 hPa | 0 mm | - | 348 W/m² | - |
| 1778001914 | 13.89° C | 71% | 1017.9 hPa | 0 mm | - | 1108 W/m² | - |
| 1778001610 | 13.89° C | 72% | 1018.1 hPa | 0 mm | - | 562 W/m² | - |
| 1778001305 | 13.33° C | 73% | 1017.6 hPa | 0 mm | - | 534 W/m² | - |
| 1778001002 | 13.33° C | 74% | 1018 hPa | 0 mm | - | 406 W/m² | - |
| 1778000699 | 12.78° C | 74% | 1017.9 hPa | 0 mm | - | 303 W/m² | - |
| 1778000394 | 12.78° C | 75% | 1017.9 hPa | 0 mm | - | 285 W/m² | - |
| 1778000090 | 12.78° C | 75% | 1017.8 hPa | 0 mm | - | 273 W/m² | - |
| 1777999786 | 12.78° C | 77% | 1017.7 hPa | 0 mm | - | 255 W/m² | - |
| 1777999483 | 12.78° C | 78% | 1017.7 hPa | 0 mm | - | 370 W/m² | - |
| 1777999181 | 12.78° C | 78% | 1017.8 hPa | 0 mm | - | 226 W/m² | - |
| 1777998879 | 12.22° C | 78% | 1017.7 hPa | 0 mm | - | 252 W/m² | - |
| 1777998578 | 12.22° C | 79% | 1017.6 hPa | 0 mm | - | 337 W/m² | - |
| 1777998274 | 12.22° C | 80% | 1017.7 hPa | 0 mm | - | 239 W/m² | - |
* Rain latest hour (hover to see other rain measurements)
** Current wind speed in m/s (hover to see current wind gust speed)